This is the latest recevied weather packets stored in our database for station/object KC3ELT-10. If no packets are shown the sender has not sent any weather packets the latest 10 day(s).
| Time | Temp. | Humidity | Pressure | Rain* | Wind** | Luminosity | Snow |
|---|---|---|---|---|---|---|---|
| 1778020379 | 24.44° C | 40% | 1002 hPa | 0 mm | 1.34 m/s, 194° | - | - |
| 1778020079 | 24.44° C | 40% | 1002.2 hPa | 0 mm | 4.02 m/s, 234° | - | - |
| 1778019779 | 24.44° C | 38% | 1002.2 hPa | 0 mm | 1.79 m/s, 195° | - | - |
| 1778019479 | 24.44° C | 39% | 1002.2 hPa | 0 mm | 2.24 m/s, 185° | - | - |
| 1778019179 | 24.44° C | 39% | 1002 hPa | 0 mm | 0.89 m/s, 213° | - | - |
| 1778018879 | 24.44° C | 40% | 1002 hPa | 0 mm | 1.34 m/s, 259° | - | - |
| 1778018579 | 24.44° C | 39% | 1002 hPa | 0 mm | 2.24 m/s, 195° | - | - |
| 1778018279 | 24.44° C | 40% | 1002.2 hPa | 0 mm | 0.89 m/s, 252° | - | - |
| 1778017979 | 24.44° C | 39% | 1002.2 hPa | 0 mm | 3.13 m/s, 174° | - | - |
| 1778017679 | 24.44° C | 39% | 1002.2 hPa | 0 mm | 2.68 m/s, 238° | - | - |
| 1778017379 | 24.44° C | 40% | 1002.1 hPa | 0 mm | 1.34 m/s, 214° | - | - |
| 1778017079 | 24.44° C | 39% | 1002.1 hPa | 0 mm | 2.68 m/s, 245° | - | - |
| 1778016779 | 24.44° C | 40% | 1002.1 hPa | 0 mm | 2.24 m/s, 234° | - | - |
| 1778016479 | 24.44° C | 41% | 1002 hPa | 0 mm | 1.34 m/s, 185° | - | - |
| 1778016179 | 24.44° C | 40% | 1002 hPa | 0 mm | 0.89 m/s, 227° | - | - |
| 1778015879 | 24.44° C | 39% | 1002 hPa | 0 mm | 2.68 m/s, 184° | - | - |
| 1778015579 | 24.44° C | 41% | 1001.7 hPa | 0 mm | 5.81 m/s, 195° | - | - |
| 1778015279 | 24.44° C | 39% | 1001.7 hPa | 0 mm | 1.34 m/s, 162° | - | - |
| 1778014979 | 24.44° C | 39% | 1001.7 hPa | 0 mm | 4.02 m/s, 274° | - | - |
| 1778014679 | 24.44° C | 39% | 1001.7 hPa | 0 mm | 2.68 m/s, 257° | - | - |
| 1778014379 | 24.44° C | 39% | 1001.7 hPa | 0 mm | 3.13 m/s, 192° | - | - |
| 1778014079 | 24.44° C | 40% | 1001.7 hPa | 0 mm | 1.79 m/s, 200° | - | - |
| 1778013779 | 24.44° C | 39% | 1001.7 hPa | 0 mm | 2.68 m/s, 229° | - | - |
| 1778013479 | 25° C | 38% | 1001.7 hPa | 0 mm | 4.02 m/s, 278° | - | - |
| 1778013179 | 25° C | 38% | 1001.7 hPa | 0 mm | 1.79 m/s, 242° | - | - |
* Rain latest hour (hover to see other rain measurements)
** Current wind speed in m/s (hover to see current wind gust speed)